Theta_e
323 325 327 327 329 328 332 333 333 337 331 330 335 334 329 329 324 317 318 318 319 320 320 322 322 322 323 325 329 335 334 331 333 333 337 334 325 329 330 328 331 330 330 331 331 332 333 336 336 337 337 337 338 338 338 338 338 338 338 339 339 339 339 339 339 339 339 339 339 339 339 339 339 338 336 336 336 337 336 336 337 337 338 338 339 339 339 339 339 338 337 337 336 336 335 335 335
324 328 329 327 329 326 334 337 336 340 335 331 331 333 331 327 321 320 321 321 323 320 320 322 323 325 324 325 325 328 327 325 327 330 330 324 323 329 328 328 330 330 330 330 331 331 333 335 335 337 336 335 336 337 337 337 338 338 338 339 338 339 339 338 338 338 338 338 338 338 338 337 337 336 335 334 335 335 335 335 336 336 337 338 337 338 338 338 337 336 335 335 334 333 332 332 331
325 329 329 328 328 328 339 336 334 333 326 324 328 334 328 321 323 327 325 321 321 318 320 321 321 324 323 323 321 323 327 326 324 327 325 319 325 329 328 329 329 331 329 329 330 330 332 332 333 336 335 335 335 336 336 336 337 337 337 337 337 338 337 337 338 337 337 337 337 336 336 336 335 334 334 333 333 333 333 333 333 334 335 335 336 335 336 335 335 334 333 333 332 331 330 329 329
326 328 326 328 330 336 349 338 341 335 322 328 331 337 334 325 327 330 328 323 320 317 318 318 319 319 319 324 321 320 326 329 324 326 328 321 324 328 328 328 328 330 329 329 328 328 330 330 332 334 334 334 334 335 334 335 335 335 335 335 335 335 335 336 336 336 336 336 335 335 334 334 334 333 332 332 332 331 331 331 331 332 332 333 333 333 333 333 332 331 330 329 328 328 328 328 327
325 327 323 328 331 336 343 331 339 334 325 336 332 335 343 333 329 331 330 322 320 319 318 318 320 317 315 321 321 322 326 327 320 318 324 322 323 327 328 328 327 327 327 328 327 327 326 327 330 332 333 334 334 334 333 334 334 333 333 333 333 332 333 334 334 334 334 333 333 333 332 332 332 331 330 329 329 329 329 329 329 329 330 330 330 330 330 329 328 327 325 324 323 323 322 322 322
325 325 323 324 323 327 334 328 332 334 331 336 332 336 341 333 327 329 328 321 320 321 319 317 318 317 317 319 318 321 323 323 321 318 318 320 323 325 328 327 326 326 326 327 326 325 324 325 327 330 332 332 333 332 333 333 332 332 332 331 331 331 332 332 331 332 331 331 331 331 330 329 329 328 328 327 326 326 326 326 326 327 327 327 327 326 326 325 324 321 318 315 313 311 310 310 311
323 323 327 326 323 326 336 335 336 339 334 329 332 334 331 328 324 323 323 319 320 319 317 318 318 317 318 319 318 318 317 319 320 320 317 319 323 324 328 327 326 326 325 326 324 323 323 324 326 329 331 331 331 331 331 331 331 330 330 330 329 330 330 329 329 329 329 328 328 328 327 327 326 325 325 325 323 321 321 322 322 323 324 324 323 322 321 319 315 311 307 304 303 302 301 301 301
323 326 329 332 330 327 331 333 334 335 330 324 329 329 326 326 322 322 322 319 319 318 317 319 319 317 317 316 322 321 314 318 318 318 317 319 323 324 327 326 326 325 325 325 323 322 322 323 324 328 330 329 330 329 330 329 329 329 329 329 328 329 329 328 328 328 327 327 327 326 326 325 325 324 323 321 317 315 314 313 313 315 316 317 316 314 312 309 306 303 301 300 299 298 298 298 298
322 324 326 329 326 324 330 331 327 326 327 325 323 325 324 322 322 322 323 321 319 319 319 321 318 316 318 317 325 321 314 318 317 317 316 319 322 324 326 325 326 325 325 324 322 320 319 321 323 327 329 328 329 328 328 328 329 329 329 328 328 328 327 327 327 326 326 325 325 325 324 323 322 320 317 313 310 308 306 304 304 304 305 306 306 305 303 302 301 300 299 298 298 298 298 298 298
322 323 325 329 325 322 327 327 327 327 329 329 323 323 323 321 321 320 322 322 319 319 318 319 316 314 318 321 325 319 316 318 317 318 316 319 322 323 326 325 325 325 324 324 323 321 318 318 321 326 327 327 328 327 328 327 328 327 327 327 326 327 326 326 325 325 324 324 324 323 322 319 316 311 308 305 303 303 301 300 299 299 299 299 299 299 299 299 299 299 298 298 298 298 298 298 298
330 330 328 327 326 324 325 328 333 334 333 327 325 325 319 319 320 318 319 320 319 318 317 316 316 319 317 321 328 317 314 316 316 318 317 320 322 323 325 324 325 324 324 324 323 321 318 317 319 322 324 326 327 326 327 326 326 326 326 326 325 326 325 324 323 322 320 320 319 316 314 310 307 304 302 301 300 300 299 299 299 299 298 298 297 297 297 297 297 298 298 298 298 298 298 297 297
328 335 337 331 330 329 327 333 336 336 333 327 329 326 317 316 318 319 319 319 321 319 318 317 317 320 317 323 329 314 311 316 317 317 318 320 321 322 323 323 324 324 324 323 323 321 318 317 317 320 321 323 326 326 326 325 325 325 325 325 325 324 322 321 318 315 313 312 309 306 304 303 302 301 300 299 299 298 297 298 300 300 299 298 297 297 297 297 297 297 297 297 297 297 297 297 297
331 335 338 332 333 331 326 333 335 331 330 331 329 319 314 318 319 321 322 319 320 319 320 319 316 316 317 324 325 318 316 316 316 317 318 320 321 322 322 323 323 323 323 322 322 320 318 317 317 319 320 322 325 326 325 325 325 324 324 323 323 320 317 314 310 308 306 304 302 301 300 299 299 298 298 298 298 297 297 297 298 299 298 297 297 296 297 297 297 296 297 297 296 297 296 297 297
330 336 335 327 329 331 326 330 332 326 326 334 328 315 314 318 320 321 320 319 320 321 318 315 315 316 318 321 325 334 325 314 316 316 317 319 320 321 321 322 322 322 322 322 321 319 318 317 317 318 320 322 324 324 324 322 320 319 318 316 314 311 307 305 303 302 301 300 299 299 298 298 297 297 297 297 297 297 297 296 296 297 297 296 296 296 296 296 296 296 296 296 296 296 296 296 296
323 338 337 327 328 328 325 325 324 321 323 331 323 315 316 316 319 321 318 318 321 318 313 312 314 317 320 320 326 333 320 313 316 316 317 319 318 320 320 321 321 321 321 321 319 318 316 316 317 318 319 320 321 321 319 316 313 310 308 306 305 303 301 300 299 299 299 298 298 298 297 297 297 297 297 297 297 297 296 296 296 296 296 296 296 296 296 296 296 296 296 296 296 296 296 296 296
327 341 333 327 330 325 324 324 321 322 327 334 323 315 317 318 317 318 317 316 318 315 313 316 314 315 320 321 321 315 312 314 314 315 316 316 316 317 318 319 320 320 320 319 318 316 315 315 317 318 318 319 318 316 312 310 308 305 304 303 302 301 300 299 298 298 298 298 298 298 298 298 297 297 297 297 297 297 296 296 296 296 296 296 296 296 296 296 296 296 296 296 296 296 296 296 296
328 335 328 325 329 325 326 326 321 322 329 335 327 318 318 320 317 314 312 312 317 316 317 320 313 313 318 318 313 309 311 314 313 314 314 313 314 314 315 318 318 319 318 318 317 316 314 314 315 316 317 317 316 313 309 307 306 305 304 302 301 300 299 298 298 298 298 298 298 298 298 298 298 298 298 297 297 297 297 296 296 296 296 296 296 296 296 296 296 296 296 296 296 296 296 296 296
325 328 323 322 328 328 330 331 326 321 323 325 321 319 318 321 321 315 313 315 317 315 317 320 315 314 312 310 310 310 312 312 312 312 311 310 310 310 312 314 316 317 317 317 317 316 315 314 314 315 316 315 314 310 307 306 306 306 304 301 301 300 298 298 298 298 298 297 297 297 298 298 298 298 298 297 297 297 297 297 296 296 296 296 296 296 296 296 296 296 296 295 295 295 295 295 295
328 329 322 324 330 328 328 331 328 320 319 321 319 319 316 318 318 314 315 319 318 316 317 317 317 318 313 309 309 310 310 310 311 310 309 307 307 308 309 311 313 314 316 316 316 315 314 313 313 314 314 314 311 308 306 305 306 306 304 301 300 299 298 298 298 297 297 297 297 297 297 297 297 297 297 297 297 297 297 297 297 297 296 297 296 296 296 296 296 295 295 295 295 295 295 295 295
329 327 323 332 331 325 326 325 324 320 318 318 318 316 315 319 316 313 316 318 318 316 317 316 319 320 319 316 308 308 309 308 309 308 307 307 307 308 308 309 311 312 315 315 315 314 313 312 312 313 313 312 309 307 305 305 305 304 303 301 299 299 297 297 297 297 296 296 297 297 297 297 297 297 297 297 297 297 297 297 297 297 296 296 296 296 295 295 295 295 295 294 294 294 294 294 294
326 323 326 334 326 322 324 323 323 321 317 315 317 315 315 319 315 314 316 317 316 315 316 316 318 318 320 324 311 306 307 306 306 307 307 306 306 307 308 309 310 312 312 312 313 313 312 311 311 312 313 311 308 305 304 303 303 303 302 300 298 298 297 297 297 296 296 296 296 296 296 297 297 297 297 296 296 296 297 296 296 296 296 295 295 295 295 294 294 294 294 294 294 294 294 294 294
323 322 325 328 321 319 320 322 323 320 315 315 317 315 315 315 314 315 316 315 315 315 318 317 317 317 318 323 313 305 306 306 305 306 306 306 306 306 307 308 308 309 309 310 311 312 311 310 310 311 312 311 307 304 302 301 301 301 301 299 298 297 297 297 296 296 296 296 296 296 296 296 296 297 297 296 296 296 296 296 296 295 295 295 294 294 294 294 294 293 293 293 293 293 294 294 294
321 323 323 324 321 319 319 320 320 318 315 315 316 314 314 314 314 316 316 315 315 315 318 318 317 313 311 314 311 309 310 308 306 305 306 306 305 306 306 306 307 307 307 308 309 309 310 309 309 310 311 310 306 304 302 300 300 299 299 298 297 297 297 296 296 296 296 296 296 296 296 296 297 297 297 296 296 296 296 296 295 295 295 294 294 294 294 294 293 293 293 293 293 293 293 294 294
320 322 323 322 320 320 319 317 318 318 316 316 315 312 313 315 315 314 315 314 314 313 314 317 313 307 309 315 316 314 311 308 306 306 307 307 307 307 307 306 306 306 306 306 306 307 308 308 308 308 309 308 306 303 301 300 299 298 298 297 297 297 297 296 296 296 296 296 295 296 296 296 297 297 297 296 296 296 296 296 295 294 294 294 294 294 294 294 294 294 294 294 294 294 293 294 294
320 321 322 321 319 320 319 316 317 317 316 314 313 314 314 314 313 312 314 313 313 313 313 315 312 309 313 318 317 313 310 308 306 306 307 307 307 307 306 306 305 305 305 305 305 305 306 307 306 306 307 307 305 302 300 299 298 298 297 297 297 297 297 297 296 296 296 296 295 295 296 296 297 297 297 296 296 296 295 295 295 294 294 294 294 294 294 294 294 294 294 295 294 294 294 294 294
322 321 321 320 318 318 317 315 315 316 316 313 313 316 315 313 312 313 313 313 313 313 314 314 311 313 315 316 314 311 311 310 306 306 306 306 307 306 306 306 305 305 306 306 305 305 306 305 306 306 305 305 304 302 300 299 298 297 297 297 297 297 297 297 296 296 296 296 295 296 296 296 296 297 297 296 296 296 295 295 294 294 294 294 294 294 294 294 295 295 295 295 295 295 294 294 294
320 319 320 319 316 315 314 314 314 314 316 315 314 315 315 313 312 313 314 315 315 315 316 314 311 313 313 313 312 310 310 309 307 307 306 306 305 305 306 305 305 306 305 305 306 306 305 305 306 306 305 303 302 301 299 298 297 297 297 296 297 297 297 296 296 296 296 296 296 296 295 296 296 296 296 296 296 295 295 294 294 294 294 294 294 294 294 295 295 296 296 295 295 295 294 294 294
314 315 316 317 315 315 313 313 313 313 314 316 313 313 314 312 312 314 313 315 315 314 317 316 314 315 311 310 310 309 309 307 306 306 306 305 305 306 305 305 306 305 305 306 306 305 305 305 305 306 305 302 301 300 298 297 297 297 296 296 297 297 297 296 296 296 296 296 295 295 296 295 295 295 295 296 295 295 295 294 294 294 294 294 294 294 295 295 295 295 295 295 295 294 294 293 293
313 313 314 316 315 314 314 313 314 313 314 316 313 312 314 314 315 315 312 313 313 313 316 315 315 315 311 309 309 308 307 306 305 305 306 306 307 307 306 307 307 306 306 307 305 305 305 305 305 305 304 302 301 300 298 297 297 297 296 296 297 297 296 296 296 296 296 296 296 295 295 295 295 295 294 295 295 295 295 295 294 294 294 294 294 294 295 295 295 295 295 294 294 293 293 293 293
314 314 314 314 315 315 314 314 315 313 314 315 313 311 314 316 315 314 313 312 312 314 316 314 314 314 312 310 309 308 307 305 306 305 306 307 307 307 307 308 307 307 307 306 305 305 305 305 304 304 303 303 302 301 299 298 297 297 297 296 296 296 296 296 296 296 296 295 295 295 295 296 296 295 294 294 294 294 294 294 294 294 294 294 294 294 295 295 294 294 294 294 293 292 292 292 292
315 313 314 315 315 316 314 313 314 312 314 315 313 312 313 314 313 313 315 314 313 315 316 315 313 313 312 311 309 309 308 305 304 305 307 307 308 307 308 308 307 307 306 306 306 307 305 304 304 303 303 303 302 301 300 299 299 298 298 296 296 296 296 296 296 295 295 295 295 295 295 296 296 296 294 294 294 294 294 294 294 294 294 294 294 294 294 294 294 294 294 293 293 292 292 292 292
321 313 316 319 316 315 314 313 313 313 313 311 312 315 314 313 314 313 314 314 314 315 316 315 314 313 312 311 309 309 308 305 303 304 306 306 307 308 307 308 307 307 307 307 307 306 305 304 304 303 303 303 302 302 301 301 300 299 299 297 296 296 296 296 296 295 295 295 295 295 295 296 297 297 295 293 294 294 294 294 294 293 293 293 293 293 293 293 293 293 293 292 292 292 292 292 292
323 314 314 319 316 314 314 315 316 314 312 311 312 315 315 314 315 314 314 314 313 314 315 314 313 312 310 309 309 309 308 307 306 304 304 306 306 307 308 308 307 308 308 308 307 306 305 304 304 303 303 303 303 302 302 301 300 300 299 298 296 295 296 295 295 295 295 294 295 295 295 296 297 297 296 294 293 294 293 293 293 293 293 293 293 293 293 292 292 292 292 292 291 291 291 291 292
318 314 315 319 316 313 314 316 316 313 312 313 312 312 312 313 314 314 314 313 312 313 314 313 312 310 309 309 309 309 309 309 309 306 305 306 306 306 307 307 308 308 307 307 307 306 306 305 304 303 303 303 302 302 301 301 300 300 299 298 297 296 295 295 295 295 294 294 294 294 295 296 297 297 297 294 293 293 293 293 293 292 292 292 292 292 292 292 291 291 292 291 291 291 291 291 292
314 316 317 318 316 313 313 314 313 313 312 313 313 312 311 312 311 312 312 312 311 312 312 311 310 310 310 310 309 309 309 310 310 308 306 307 306 306 306 307 307 307 307 307 307 306 305 304 303 303 302 302 302 301 301 300 300 300 299 298 297 296 296 296 296 296 296 295 295 295 295 296 297 297 297 295 293 293 293 292 292 292 292 292 291 291 291 291 291 291 291 291 291 291 291 292 292
313 315 314 315 314 312 313 312 312 312 311 311 312 311 310 310 310 311 311 311 311 311 311 310 310 310 309 309 309 309 309 310 310 308 308 308 307 307 307 306 307 307 307 307 306 306 305 304 303 302 302 301 301 300 300 300 299 299 298 298 298 297 298 298 298 298 298 297 296 296 295 295 296 297 296 295 293 292 292 292 292 291 291 291 291 291 292 291 291 291 291 291 291 291 291 291 291
312 312 313 313 312 311 311 311 310 310 310 311 312 311 310 310 310 311 311 311 311 311 311 311 311 310 310 310 310 310 310 310 309 308 308 308 308 308 307 307 306 306 306 306 306 305 305 304 303 302 302 301 300 300 300 299 299 298 298 298 298 298 298 298 299 299 299 298 297 297 296 295 296 296 296 295 293 292 292 291 291 291 291 291 291 291 292 291 291 291 291 290 290 291 291 291 291
312 313 313 312 312 311 310 311 311 310 310 311 312 312 310 310 310 310 311 311 311 311 311 312 312 311 312 311 311 311 310 310 310 310 308 307 307 307 307 306 306 305 306 306 306 306 305 304 303 302 301 301 301 300 300 299 299 299 299 298 298 298 298 298 299 299 298 298 297 298 297 296 295 295 296 294 293 292 292 291 291 291 291 291 290 290 291 290 290 290 290 291 290 290 291 291 290
313 313 313 313 312 311 311 311 312 310 311 314 315 312 310 311 311 310 311 311 311 311 312 312 312 313 312 312 312 311 311 311 311 311 309 306 305 306 306 305 305 306 306 306 306 305 305 303 302 302 301 300 300 300 300 300 300 300 299 299 298 297 297 298 298 298 298 298 298 298 297 296 295 295 295 294 292 292 291 291 291 291 290 290 290 290 290 290 290 290 290 291 291 290 290 290 290
313 313 313 313 312 312 313 313 314 312 311 315 314 311 310 310 310 310 310 310 311 311 311 312 312 312 312 312 313 312 311 312 310 311 310 307 305 304 303 304 304 305 305 305 305 304 303 303 302 301 301 301 300 300 300 300 299 299 299 298 298 297 297 297 297 297 297 298 298 298 297 297 296 295 294 293 292 292 291 291 291 290 290 290 290 290 290 290 290 290 290 290 291 291 290 290 290
313 314 313 313 312 312 312 313 315 313 313 316 313 312 313 313 312 311 311 310 310 310 310 311 311 311 312 311 312 312 311 311 311 311 310 310 311 305 301 304 304 303 304 305 304 304 303 303 302 301 301 300 300 300 300 299 298 298 297 297 297 296 296 296 296 296 296 297 297 297 297 296 296 295 294 293 292 292 291 291 290 290 290 290 290 290 290 290 290 290 290 291 291 291 291 290 289
313 314 313 312 312 312 312 313 313 315 319 318 314 315 317 318 317 313 312 312 311 310 310 310 310 310 310 311 311 311 311 311 310 311 310 311 313 305 300 302 303 302 304 305 305 304 304 303 301 301 300 300 300 299 299 299 298 298 297 297 296 295 295 295 296 295 295 296 296 296 296 296 296 295 294 293 292 291 291 291 290 290 289 289 289 289 290 290 290 290 290 290 290 290 290 290 289
313 319 319 313 311 313 314 314 314 319 323 316 314 318 318 318 318 316 315 315 314 313 311 310 311 310 311 312 311 311 311 311 311 311 311 310 311 308 303 301 301 303 304 304 304 304 303 302 301 300 300 300 299 299 299 298 298 297 297 297 297 296 295 295 296 296 295 295 295 295 295 296 295 295 294 293 292 291 291 291 290 290 289 289 289 289 289 290 290 290 290 290 289 289 290 289 289
316 322 323 318 316 316 315 313 315 319 319 315 315 319 319 317 317 318 318 317 316 314 313 312 311 312 312 313 313 312 311 311 312 313 312 310 310 309 306 301 302 304 304 303 303 303 303 302 301 300 300 299 299 299 299 298 298 297 297 297 297 297 297 296 296 295 295 295 295 295 295 295 295 295 294 293 292 292 291 291 290 289 289 289 289 289 289 289 289 289 289 289 288 289 289 289 289
317 318 318 319 318 317 316 316 317 317 317 316 316 316 319 319 316 317 315 314 316 315 314 314 313 313 313 314 315 313 312 311 312 312 311 311 308 305 303 303 304 304 303 303 303 303 302 301 301 300 299 299 299 299 298 298 298 298 297 297 297 297 297 296 296 295 295 295 294 294 294 295 295 294 294 293 292 292 291 290 290 289 289 288 288 289 289 288 288 289 288 289 288 288 288 288 288
316 316 317 320 320 320 320 319 318 319 320 318 317 316 318 320 319 318 314 314 319 317 314 313 312 313 313 314 315 314 313 313 312 311 310 310 306 303 304 304 303 303 302 303 303 302 302 300 300 299 299 299 298 298 298 298 298 298 297 297 297 297 296 296 295 295 294 294 294 294 294 294 294 294 294 293 292 292 291 291 290 289 289 288 288 288 288 288 288 288 288 289 288 288 288 288 288
314 317 322 323 322 323 325 325 318 318 320 319 321 319 317 320 320 319 317 318 319 316 315 317 314 316 317 315 313 313 313 313 313 312 312 310 304 301 302 302 301 302 302 302 301 301 301 300 299 299 298 298 298 298 298 298 298 297 297 297 297 297 296 295 295 294 294 294 293 293 293 293 294 294 294 293 292 292 291 291 290 289 288 288 288 288 288 288 288 288 288 288 288 288 288 287 287
314 320 324 321 323 324 325 325 320 319 321 320 321 317 316 319 318 316 318 319 318 315 317 322 322 323 325 321 315 312 312 312 314 314 313 314 311 306 302 300 300 300 300 300 300 300 300 299 299 298 298 298 298 298 298 297 297 297 297 297 297 297 296 295 295 294 294 293 293 293 292 292 293 293 293 293 292 292 292 291 290 289 288 288 288 287 287 287 287 287 287 288 288 288 288 287 287
314 320 320 318 321 321 321 324 321 321 320 316 315 315 314 316 316 315 317 317 319 318 316 321 325 325 325 323 318 314 313 311 311 312 314 320 323 318 307 300 298 298 298 299 299 299 299 299 298 298 297 298 297 297 297 297 297 297 297 297 297 296 296 295 295 294 294 294 293 293 292 292 292 292 292 292 293 292 292 291 290 289 288 288 288 288 287 287 287 287 287 287 287 288 288 287 288
314 317 318 318 320 319 322 326 323 321 320 315 312 315 316 316 319 319 315 314 317 317 315 317 319 318 318 319 318 316 315 312 310 313 319 322 324 320 308 298 296 298 298 297 298 299 298 298 298 298 298 297 297 297 297 297 297 297 297 297 296 296 296 296 295 295 294 294 293 293 293 292 292 292 292 292 293 292 292 292 291 290 289 288 288 287 287 287 287 287 287 287 287 288 288 288 288
313 317 320 318 320 324 325 326 325 322 322 317 311 316 321 319 320 320 317 316 318 319 319 317 314 314 315 314 314 313 312 311 311 315 320 324 327 317 303 297 297 298 297 297 298 298 298 298 298 298 297 297 297 297 297 297 297 297 296 296 296 296 296 295 295 295 295 294 294 293 293 293 293 293 292 292 292 292 292 292 291 291 289 288 288 287 287 286 286 286 287 287 287 288 287 287 287
314 319 320 315 320 329 324 323 324 320 320 319 314 319 322 317 316 317 318 318 318 319 317 313 313 314 314 313 314 313 313 313 314 315 316 321 325 311 297 296 298 297 297 297 297 297 297 298 297 297 298 297 297 297 297 297 297 296 296 296 296 296 295 295 295 295 294 294 294 293 293 293 293 293 292 292 291 291 292 291 291 291 290 288 288 287 287 286 286 286 286 287 287 287 287 287 286
315 316 318 314 318 324 320 321 322 317 319 320 318 320 320 317 317 317 316 315 313 315 315 312 314 315 314 315 317 318 319 319 316 314 314 316 318 309 297 296 298 298 298 297 296 297 297 297 298 297 297 297 297 297 297 297 296 296 296 296 296 295 295 295 295 295 294 294 293 293 293 293 293 292 292 292 291 291 291 291 291 290 289 288 287 287 287 286 286 286 286 286 287 286 286 286 286
316 318 317 314 316 318 318 320 320 318 320 320 318 320 318 319 320 316 317 319 317 317 317 316 316 317 319 322 322 321 319 315 312 312 313 314 317 313 300 296 299 298 298 298 297 297 296 297 298 297 297 297 297 297 297 296 296 296 296 296 296 295 295 295 295 294 294 293 293 293 293 292 292 292 292 291 291 291 291 290 290 290 289 288 288 287 286 286 285 285 286 286 286 286 285 285 285
314 318 315 315 319 319 318 319 319 318 320 320 319 319 317 319 319 316 318 320 319 319 316 316 317 318 321 323 320 318 314 313 313 313 313 313 316 315 302 298 300 299 298 298 298 297 296 296 297 297 297 298 297 297 296 296 296 296 296 296 295 296 295 295 295 294 294 293 293 293 292 292 292 292 291 291 291 290 290 290 289 289 288 288 287 287 286 285 285 285 285 285 285 285 285 284 284
310 312 312 314 317 318 318 320 320 319 320 321 321 320 319 318 317 316 317 317 319 319 318 320 322 320 318 317 316 316 315 315 316 315 314 314 313 310 301 300 301 299 299 299 298 298 297 296 296 296 297 297 297 297 296 296 296 296 296 296 295 295 295 295 295 294 293 293 293 293 292 292 292 291 291 291 291 290 290 289 289 288 288 287 287 286 286 285 285 285 285 285 285 284 284 284 283
315 313 313 312 313 316 317 316 317 317 318 320 322 322 322 321 320 317 316 317 319 320 320 324 325 321 318 317 317 317 316 315 314 314 314 313 311 306 299 301 302 300 300 299 298 298 297 297 297 296 297 296 296 296 296 296 296 296 296 295 295 295 295 295 294 294 294 293 293 293 292 292 292 291 291 291 290 290 289 289 288 288 287 286 286 286 285 285 284 284 284 284 284 284 283 283 282
317 315 314 313 313 316 317 316 317 317 316 319 320 320 322 323 323 317 314 317 319 319 320 322 323 322 320 319 317 316 314 313 312 312 311 309 310 306 300 300 301 301 300 299 298 297 297 297 297 296 296 296 296 296 296 297 296 296 296 295 295 295 295 294 294 294 293 293 293 293 292 292 291 291 291 290 290 290 289 289 288 287 287 286 286 285 285 284 284 284 284 284 284 284 283 282 282
Wind_Speed
2 1 1 1 2 0 2 4 2 3 2 1 3 1 4 5 2 2 3 2 1 3 3 1 2 5 3 3 7 7 5 7 7 5 4 3 6 21 24 14 20 28 28 27 26 25 23 21 19 18 17 18 17 16 15 14 13 13 12 12 12 11 10 10 10 10 10 10 10 11 10 10 9 9 10 9 9 8 8 8 8 8 8 7 7 7 7 6 6 5 5 4 5 4 2 2 2
2 1 2 2 2 1 1 3 2 3 4 3 4 3 4 3 1 5 8 6 5 4 1 3 3 3 3 2 4 3 3 4 4 4 3 4 9 20 22 16 24 28 28 28 26 25 24 24 22 20 18 20 19 17 17 16 15 14 13 12 13 12 11 11 11 11 10 10 9 9 9 8 8 8 8 8 8 7 8 8 7 7 8 7 6 7 8 8 5 4 4 2 3 2 1 1 1
1 0 2 1 2 3 1 4 2 1 3 3 5 5 3 2 5 8 9 8 7 3 2 2 2 2 4 3 1 2 4 3 3 3 1 8 9 18 25 19 24 26 27 28 26 26 24 24 23 22 18 18 18 16 16 15 15 15 13 12 13 11 11 11 10 10 10 9 8 8 8 7 7 7 7 7 7 7 7 7 7 7 8 6 5 5 5 5 3 2 2 1 0 1 2 2 3
1 1 2 0 1 4 4 3 1 3 1 3 3 6 3 4 8 7 7 7 6 1 2 0 0 1 3 1 2 1 4 4 4 6 2 12 12 18 29 22 23 25 26 27 26 25 23 23 24 24 19 17 17 17 17 15 14 15 14 13 13 12 11 12 11 11 10 9 8 8 8 7 7 7 6 6 7 7 7 7 7 7 7 6 5 5 4 4 4 4 3 2 2 3 4 4 4
1 1 3 2 2 1 3 2 2 3 4 4 2 6 5 7 7 6 6 5 4 1 1 1 1 2 1 3 3 1 5 2 4 10 5 12 15 20 30 25 24 25 25 26 24 24 23 23 24 24 20 17 17 17 19 17 15 15 15 14 14 14 13 12 12 12 11 10 9 9 8 8 7 7 7 7 8 7 7 7 7 7 6 7 5 5 5 5 5 4 3 3 4 4 5 5 5
0 2 4 4 2 1 3 1 2 2 5 5 3 7 7 7 6 6 5 6 4 4 4 2 2 1 1 2 2 3 5 2 3 12 8 10 16 22 29 27 25 25 25 25 24 23 22 22 23 22 18 18 17 17 19 18 17 16 16 16 16 16 14 13 13 13 12 12 11 10 9 9 8 8 8 8 8 8 8 8 8 8 8 7 6 5 5 4 4 3 3 3 4 4 4 4 5
1 1 3 5 2 2 3 3 4 4 5 6 5 7 9 7 5 4 2 2 2 4 4 4 2 3 3 2 1 4 6 4 3 7 8 10 18 24 29 28 26 25 24 24 23 23 23 23 23 20 18 18 17 17 17 18 19 18 17 17 17 17 16 15 15 14 14 13 12 12 11 10 10 10 10 9 9 10 9 9 9 9 9 8 7 6 5 4 3 3 2 2 2 1 1 2 2
3 1 1 4 1 2 3 2 4 4 4 5 5 7 9 6 4 5 4 3 2 3 2 3 2 2 5 0 2 5 5 9 4 4 8 13 21 26 29 29 27 26 24 24 23 23 23 24 22 18 18 18 17 18 18 19 20 19 19 18 18 18 17 16 16 16 15 15 14 14 13 13 13 12 11 10 10 10 10 10 10 10 10 10 8 7 6 5 4 3 3 2 2 2 2 1 0
4 2 0 2 2 1 1 2 4 4 5 6 6 8 8 4 6 6 6 4 2 2 4 4 4 3 4 0 4 4 4 11 8 6 8 16 23 27 30 31 29 28 25 24 24 23 23 24 22 17 17 18 17 18 19 20 19 19 19 18 18 17 17 16 16 16 15 15 15 14 14 14 13 12 11 11 10 10 10 10 10 10 10 10 9 7 7 6 6 5 5 5 4 4 3 3 3
4 3 1 1 2 1 4 3 3 3 6 6 6 10 8 4 7 5 6 6 3 1 5 3 4 4 2 2 5 3 4 10 11 9 11 20 25 28 30 31 30 29 27 26 25 24 23 23 22 18 18 18 17 18 18 18 18 18 18 18 18 17 18 17 17 16 16 15 15 14 14 13 13 13 12 11 11 10 10 10 10 10 10 10 9 8 8 8 7 7 7 6 6 5 5 4 4
2 4 2 2 2 2 4 4 4 5 6 5 7 10 8 6 6 3 3 4 4 2 3 3 2 4 1 3 5 3 4 10 14 13 16 24 27 28 30 30 29 27 28 27 26 24 23 23 23 21 20 19 18 18 18 18 18 18 18 18 18 18 18 18 17 16 16 16 15 15 14 14 13 12 12 11 11 11 11 11 11 11 11 11 10 10 9 9 8 7 7 6 6 5 5 4 4
2 3 3 3 2 3 4 3 5 6 7 5 6 7 2 8 6 4 5 5 3 2 5 4 3 4 3 5 4 3 4 12 15 14 19 26 28 29 29 29 28 27 27 26 26 25 24 24 24 23 22 21 20 19 19 19 18 18 18 18 18 18 18 17 17 16 17 16 16 15 15 14 13 13 13 12 12 12 13 12 13 12 12 11 11 10 9 9 8 7 6 6 6 5 5 4 4
3 1 4 2 3 2 2 2 5 5 7 4 5 4 3 8 5 7 7 4 3 2 7 8 3 2 3 4 4 5 5 14 16 16 23 27 28 29 28 28 28 27 26 25 25 25 25 25 25 24 23 23 22 21 21 21 20 18 18 18 18 18 18 18 17 17 17 16 16 16 16 16 15 15 14 14 14 14 14 13 13 13 12 12 11 10 9 8 8 7 7 7 6 6 5 4 4
2 3 4 1 1 1 2 2 4 2 5 6 3 2 2 3 4 5 6 4 6 6 6 6 6 1 3 3 4 5 5 15 19 20 26 27 28 28 27 28 27 27 26 26 26 25 26 26 26 25 24 24 23 23 22 22 21 19 19 19 19 19 19 18 18 17 17 17 17 17 17 17 16 16 16 15 15 15 14 14 13 13 12 12 11 10 9 9 8 7 7 6 6 5 5 4 4
2 2 4 0 2 2 3 3 2 2 4 6 3 1 2 4 3 4 5 7 8 6 1 2 5 2 3 3 5 6 5 17 22 23 27 26 26 26 27 27 26 27 27 26 26 26 27 27 28 26 26 26 26 25 24 23 23 22 22 21 21 20 19 18 18 18 18 19 19 19 18 18 17 17 16 15 15 15 15 15 14 14 13 12 11 11 10 9 8 7 7 6 5 5 4 4 3
3 3 4 1 2 2 3 4 1 2 5 6 4 2 1 6 2 2 5 4 4 3 0 3 4 2 4 7 6 7 4 20 23 24 27 24 24 24 25 26 27 27 27 28 28 28 28 28 29 28 28 28 28 27 26 25 25 24 23 22 21 20 20 19 19 19 20 20 20 19 19 18 18 17 16 15 15 15 15 15 15 14 14 13 11 10 10 8 8 7 6 5 5 4 4 3 3
3 4 3 1 2 2 4 4 3 2 5 6 6 2 2 7 3 2 2 3 3 2 2 5 3 1 4 4 6 6 9 24 25 25 25 22 22 21 22 25 27 28 30 30 30 30 29 30 30 31 31 30 30 28 27 27 25 24 23 22 21 20 20 20 20 21 21 20 20 19 18 18 17 17 16 16 16 15 15 15 14 14 13 12 11 10 9 8 7 6 5 5 4 4 4 3 3
2 3 2 3 3 4 6 7 6 3 4 5 5 1 5 5 5 2 2 2 3 3 4 5 6 5 3 4 5 2 18 26 26 27 24 22 21 20 22 26 29 31 33 33 33 32 32 32 32 32 33 32 31 30 29 28 26 25 23 22 21 21 21 22 22 21 21 21 20 19 19 18 18 17 17 16 16 16 15 15 14 14 13 12 11 10 10 8 7 7 6 5 5 5 4 4 3
2 3 2 4 6 6 6 7 5 3 4 5 6 2 5 6 4 1 3 7 4 4 6 5 8 9 5 2 2 12 22 25 27 28 25 24 25 24 24 26 30 32 35 38 38 36 35 35 35 35 34 34 33 31 30 29 27 26 24 23 22 23 23 22 22 22 22 22 21 21 20 19 18 18 18 17 17 16 16 15 14 14 13 12 11 11 10 9 8 8 7 6 6 6 5 5 4
2 3 2 6 7 6 6 7 7 7 4 6 8 2 3 7 4 1 4 8 6 7 7 4 7 12 10 3 7 14 20 23 25 26 25 27 28 28 27 28 32 36 40 41 40 39 38 37 37 37 36 35 34 33 31 30 29 27 26 25 24 24 24 23 23 23 23 23 23 22 21 20 19 19 18 18 17 17 17 16 15 14 13 12 11 10 9 9 8 8 7 7 6 6 6 5 5
2 4 5 7 4 4 8 8 9 8 4 4 5 2 4 7 3 3 3 7 10 9 8 10 12 13 12 6 8 14 17 18 22 23 24 25 27 28 30 33 36 38 38 36 38 40 40 39 39 39 38 37 36 34 33 32 30 29 28 26 26 25 25 24 24 24 24 24 23 22 22 21 21 20 20 19 19 18 17 16 15 14 13 12 11 10 9 9 8 8 7 7 6 6 5 5 5
2 5 8 7 5 4 9 6 7 5 3 3 4 4 6 4 2 5 6 7 12 7 8 13 14 13 11 9 10 12 13 15 18 21 23 24 27 29 31 32 32 31 31 34 40 42 42 41 41 40 40 39 38 36 35 34 32 31 30 29 28 27 26 26 27 26 26 25 25 24 24 23 23 22 21 21 20 19 18 17 16 15 13 12 11 10 9 9 8 8 7 7 6 5 5 4 4
3 6 6 7 7 7 7 4 5 3 1 5 4 4 4 5 8 5 9 13 17 10 7 11 12 12 10 9 11 12 13 14 17 23 27 28 30 32 34 33 33 33 34 38 40 41 42 43 42 42 41 41 40 38 36 35 34 33 31 30 30 29 29 29 29 29 28 27 26 26 26 26 25 24 24 23 22 21 19 18 16 15 13 12 11 10 9 9 8 8 7 6 5 5 4 4 4
4 6 5 6 7 9 10 6 6 4 5 8 2 4 5 8 9 1 7 17 18 13 8 9 10 7 6 8 11 14 15 17 21 29 33 34 36 39 38 35 35 34 34 36 36 38 42 44 44 43 43 43 42 40 38 37 36 34 32 32 31 31 31 32 31 30 29 29 28 28 28 27 27 27 26 25 24 22 20 18 17 15 14 12 12 11 9 9 8 7 6 5 4 4 3 4 4
5 8 5 4 4 8 10 7 7 7 7 6 2 7 12 12 7 5 15 21 16 12 10 11 9 4 6 9 12 13 14 16 21 27 30 33 35 34 33 32 30 30 34 37 36 38 42 44 45 45 45 45 44 42 41 40 38 36 35 34 33 33 33 33 32 31 31 31 30 30 30 29 29 28 27 27 25 23 21 19 18 16 15 14 13 11 10 8 7 6 4 3 3 2 3 3 3
7 8 5 4 6 8 7 7 7 7 6 3 3 12 15 8 3 9 20 20 14 9 9 10 7 7 8 9 11 13 13 15 19 23 28 31 29 28 31 32 31 34 39 38 37 40 42 42 45 47 47 46 45 44 43 42 40 38 37 36 36 35 35 34 33 33 32 32 32 32 31 31 30 29 28 27 25 24 22 21 19 18 16 15 13 11 10 8 6 5 3 2 2 2 2 2 3
5 5 6 7 8 8 5 6 7 5 5 7 8 14 15 4 1 10 16 10 4 3 5 6 5 9 10 9 10 11 12 17 22 22 21 23 25 29 32 31 35 39 37 37 40 41 40 41 45 48 48 47 46 45 45 44 42 41 39 38 38 37 36 36 35 34 34 33 33 33 33 32 30 29 28 27 25 24 23 22 21 19 17 15 13 12 10 8 6 4 2 1 1 1 2 2 2
1 2 7 9 7 10 8 8 7 4 5 8 11 12 12 3 3 13 19 7 1 5 9 7 6 9 9 9 9 8 10 19 21 17 16 21 28 33 33 35 40 39 37 42 43 40 39 42 44 46 48 47 46 46 46 45 44 42 41 40 40 39 38 37 37 36 36 35 35 35 34 33 31 29 28 27 26 25 24 23 21 19 18 16 14 12 11 9 6 4 3 1 1 1 1 1 2
3 2 6 12 7 11 13 8 5 6 4 6 9 5 9 5 10 17 19 8 2 6 11 10 8 9 9 8 9 8 11 16 15 17 24 30 34 35 36 42 43 40 42 44 39 38 41 43 43 45 46 46 47 48 47 46 45 43 43 42 41 40 39 39 39 38 38 37 36 36 35 34 31 30 29 27 26 25 24 23 22 20 18 17 15 13 11 9 7 5 4 2 1 1 1 1 2
5 2 2 9 8 10 9 2 1 4 5 6 7 4 7 10 17 17 14 8 3 7 11 11 9 8 8 8 8 9 11 12 14 22 32 35 35 35 38 42 41 41 42 37 36 41 43 42 42 43 44 47 48 48 47 47 46 45 44 43 42 42 41 40 40 39 39 38 37 37 36 34 32 30 30 28 27 26 25 24 22 21 19 18 16 14 12 10 8 6 5 4 3 2 1 1 1
4 3 1 3 3 8 7 3 2 3 4 7 7 5 8 13 20 15 8 7 7 8 12 11 10 8 8 8 8 10 11 12 19 28 34 36 36 35 38 40 39 41 39 36 42 45 42 42 42 43 45 47 48 48 48 48 47 46 45 44 43 43 42 41 41 40 40 39 38 37 36 34 33 31 31 30 28 27 26 25 23 22 20 19 17 15 13 11 10 8 6 5 4 3 1 0 2
2 2 4 2 2 7 12 6 6 8 5 4 6 5 8 12 20 15 4 4 7 8 12 11 10 10 10 9 7 10 11 12 19 28 32 35 37 36 39 39 38 40 41 42 44 42 41 42 43 43 45 47 48 48 48 48 47 46 45 45 44 44 43 42 42 41 41 40 39 37 36 36 34 33 32 31 30 28 27 26 24 23 21 20 18 16 14 12 11 9 8 6 5 4 2 0 1
2 2 5 5 4 4 9 9 7 10 4 2 6 6 6 8 15 14 4 4 6 7 11 12 12 11 10 10 8 9 10 10 13 21 29 35 38 39 39 39 39 41 44 44 43 41 42 43 43 44 46 48 49 49 48 47 46 46 45 44 44 44 43 43 42 42 42 41 40 39 38 37 36 34 33 32 31 29 28 27 25 24 22 20 19 17 15 13 12 11 9 8 6 4 3 1 1
3 0 4 5 7 5 5 9 6 4 5 5 7 8 11 11 12 15 10 5 6 7 12 13 11 10 9 9 9 10 10 11 11 16 26 33 36 37 38 39 40 40 42 42 43 43 43 43 44 46 46 47 47 47 46 45 44 43 43 43 43 43 43 43 43 43 43 42 41 40 40 39 37 36 34 33 32 30 28 27 26 25 23 21 20 18 17 15 14 12 10 10 7 5 4 2 1
5 4 5 4 6 7 7 8 6 3 4 6 5 8 14 15 13 15 17 13 9 11 14 13 11 12 11 10 11 12 11 14 15 18 25 29 30 33 37 38 37 38 39 40 41 41 41 41 42 44 44 44 44 44 43 42 41 41 40 40 40 41 42 42 42 43 43 43 42 42 41 40 39 37 36 34 33 32 30 28 27 26 24 23 21 20 19 18 16 14 12 10 8 6 3 2 1
9 7 6 6 7 7 8 11 10 5 6 7 8 13 15 15 15 15 18 16 14 15 15 12 11 12 12 12 13 13 13 16 19 23 24 24 27 30 32 34 36 37 38 38 39 39 39 40 40 41 43 43 42 40 40 40 39 38 38 37 38 40 42 43 43 44 44 44 43 42 41 40 40 39 37 36 34 33 31 30 29 27 26 25 23 22 21 19 17 14 13 10 9 7 4 2 2
6 5 6 8 8 9 9 13 12 2 3 8 10 15 17 15 16 16 17 15 15 19 18 15 13 12 13 14 15 14 15 17 19 24 23 21 25 26 27 30 32 34 35 37 37 39 42 42 42 43 43 43 43 43 42 43 42 39 38 39 41 42 43 44 44 45 45 45 44 43 42 41 41 40 38 37 36 34 33 31 30 29 27 26 24 22 20 18 16 15 14 12 9 7 4 2 1
6 6 7 8 6 12 13 13 14 2 2 8 9 15 19 15 16 15 15 15 16 20 19 17 16 14 13 14 17 16 14 14 15 19 20 19 20 22 24 27 30 33 35 38 40 42 44 43 44 44 43 44 46 47 46 46 47 46 44 45 46 44 45 46 46 47 46 45 45 44 43 42 41 41 39 38 37 36 34 33 32 30 29 27 24 22 20 19 18 17 16 13 11 8 5 3 1
7 5 6 7 6 11 12 10 12 3 2 7 9 14 16 14 16 15 16 17 16 18 19 18 17 16 15 16 17 16 15 15 14 17 17 14 16 20 23 26 31 34 36 39 41 41 41 42 43 42 43 45 47 47 47 47 48 47 45 44 44 41 42 45 45 44 45 44 44 43 43 42 42 41 40 39 38 37 35 34 33 31 30 28 26 24 23 22 20 19 17 14 12 9 7 4 2
6 7 6 8 7 8 8 6 7 3 3 7 10 13 13 12 16 15 18 19 14 15 19 18 17 17 19 18 16 16 16 16 15 17 16 9 11 17 21 25 30 32 32 35 37 38 39 41 42 42 44 46 46 47 48 46 44 42 39 37 36 35 35 38 37 37 40 42 43 44 44 43 42 41 41 40 39 38 36 35 34 32 31 29 28 27 26 25 22 20 18 15 14 11 9 6 4
8 9 7 10 12 12 10 5 6 6 5 6 8 14 11 9 14 14 13 13 11 14 18 19 18 18 19 17 15 16 17 17 15 16 16 8 8 14 20 25 27 29 32 36 38 39 40 42 43 43 44 44 45 46 46 42 39 37 34 29 28 29 28 30 32 34 38 42 44 45 45 44 43 42 41 41 40 39 37 35 34 33 32 30 29 29 27 25 23 21 19 17 15 13 11 9 7
8 7 12 18 16 12 11 8 7 6 5 5 5 9 10 7 12 12 7 6 9 11 15 19 19 17 16 14 14 15 15 16 14 14 16 11 8 11 17 22 24 28 34 37 38 40 40 40 41 41 41 42 43 43 43 42 40 39 37 32 30 29 27 31 38 40 41 43 44 44 44 43 43 42 41 41 40 39 38 36 35 34 33 31 31 29 27 25 23 22 20 18 16 13 13 11 11
8 6 13 17 13 9 11 8 3 2 4 4 3 1 10 7 6 9 7 7 11 11 12 17 16 15 13 10 11 13 12 12 11 12 13 13 11 9 13 19 24 29 33 33 33 35 36 36 38 40 40 41 41 42 43 42 41 40 41 39 37 36 34 37 42 40 40 42 42 41 43 43 43 43 42 41 41 40 39 37 36 34 33 32 31 30 28 26 24 22 20 18 16 15 14 14 14
7 5 8 10 9 9 8 6 4 4 3 3 1 5 6 14 5 8 10 10 11 12 13 15 15 15 12 9 11 14 12 10 9 10 13 14 11 9 11 18 26 30 29 28 31 34 35 36 38 40 40 40 41 42 44 44 43 42 42 41 39 40 40 38 37 35 36 39 40 40 42 43 43 43 42 42 41 41 40 39 37 35 34 33 32 31 28 26 24 23 21 19 18 17 15 14 15
6 1 5 6 5 5 4 4 4 1 4 3 3 6 3 13 6 3 4 7 9 13 15 16 15 14 11 9 12 14 12 10 9 11 13 12 8 9 13 18 24 27 26 28 32 34 35 36 37 39 39 39 40 42 45 46 46 45 44 42 40 41 39 34 32 33 34 36 39 40 41 42 43 43 43 42 42 42 42 40 38 37 35 34 33 31 29 27 26 25 24 22 20 19 17 14 14
3 6 5 4 4 3 5 3 3 2 4 5 6 7 3 11 6 4 3 3 7 11 12 13 12 11 10 10 13 13 10 10 10 9 10 10 8 11 15 17 20 22 25 27 30 32 33 34 35 37 39 38 40 42 44 46 45 44 44 44 42 39 36 32 30 32 34 35 38 39 40 42 43 44 44 43 43 43 43 41 40 38 37 36 34 32 30 29 28 26 25 23 21 20 18 16 14
3 6 5 6 5 4 4 1 3 2 8 6 11 13 7 8 5 4 3 4 6 8 7 8 9 10 10 10 11 11 9 9 8 8 8 7 7 8 9 12 14 17 21 24 26 29 32 33 35 37 38 38 40 42 44 46 45 45 45 45 43 40 36 33 32 33 35 36 38 39 40 42 43 45 45 45 44 44 43 43 41 40 38 37 35 34 32 31 29 27 25 23 21 20 19 17 16
4 3 4 3 4 4 4 4 4 1 9 5 11 13 10 9 6 2 5 6 5 7 7 7 9 10 10 9 10 9 8 7 6 7 8 8 7 5 4 8 10 13 18 22 25 28 31 33 35 36 37 39 41 42 44 45 45 46 45 44 44 41 38 37 37 36 37 38 38 38 38 39 41 43 44 46 46 46 45 44 42 41 40 39 37 35 33 31 30 29 27 25 23 22 20 19 18
4 4 4 1 4 3 2 3 1 4 8 3 6 7 6 12 9 5 9 10 9 9 8 8 9 9 9 9 9 8 8 7 4 5 7 7 7 6 4 6 9 13 17 21 24 28 31 33 35 37 38 40 40 41 44 45 46 47 47 45 43 41 40 40 40 39 39 40 39 38 38 39 39 41 45 48 49 49 47 46 45 44 43 41 39 37 34 33 32 31 29 28 26 24 23 21 20
6 5 6 4 3 2 4 4 2 6 6 2 3 5 4 9 6 8 14 14 12 9 8 9 9 9 10 10 9 9 11 9 4 4 6 6 7 6 5 6 10 13 16 19 23 27 30 32 35 37 37 39 40 42 43 44 47 48 47 45 43 41 41 42 42 41 41 41 40 41 42 42 42 45 47 49 50 50 49 49 47 46 44 42 40 38 36 35 34 33 32 30 28 26 24 23 21
6 5 5 5 5 4 4 4 5 7 5 3 2 4 5 4 3 7 11 9 7 5 7 7 6 8 8 8 10 10 11 10 6 4 5 6 7 6 6 8 11 14 15 18 22 26 29 31 35 36 36 38 41 41 42 45 47 47 45 44 43 43 44 43 42 42 41 42 42 43 43 44 45 47 47 47 48 49 50 49 48 47 46 44 42 40 39 37 36 35 34 32 30 28 26 25 24
3 3 3 4 5 5 4 7 6 3 3 4 3 4 5 4 6 8 9 9 8 8 8 5 6 8 5 7 9 9 9 9 9 8 6 7 7 5 6 9 11 14 15 19 24 27 31 32 34 36 36 38 41 42 44 47 47 44 43 44 43 43 42 42 42 43 43 43 43 43 44 45 46 45 45 45 45 47 50 50 49 49 48 46 44 43 41 40 39 37 36 34 32 30 29 28 26
2 3 3 5 4 6 5 8 3 0 5 7 6 8 6 5 10 8 4 8 9 9 9 7 8 8 5 7 8 7 8 9 8 8 8 8 7 5 7 9 12 14 17 21 25 28 31 32 32 34 33 34 39 44 46 46 44 43 44 45 44 43 43 44 45 45 44 42 41 43 43 43 44 44 44 44 44 46 48 49 49 49 48 47 46 45 43 42 41 40 38 36 35 32 31 29 27
5 4 5 2 2 2 2 3 1 2 9 8 8 14 10 5 8 4 5 5 6 6 7 6 7 6 4 6 7 7 8 8 8 9 8 8 7 5 8 11 12 15 18 21 24 25 26 29 31 32 33 36 41 44 43 42 42 43 44 45 46 46 46 46 45 43 41 40 40 42 42 42 43 43 42 42 43 45 46 48 48 48 49 48 48 47 45 43 42 41 40 38 36 34 32 31 28
5 3 2 2 2 3 2 2 3 7 10 7 9 16 12 8 10 7 5 7 8 7 6 4 6 6 4 5 8 8 8 7 9 10 11 12 10 5 6 11 12 13 17 19 21 22 24 27 29 31 34 38 38 37 37 38 39 42 43 44 46 46 46 45 44 41 39 40 42 43 43 43 43 42 42 42 43 44 45 47 47 47 47 48 48 48 47 45 44 43 41 39 37 36 34 32 29
1 1 2 1 3 3 3 3 2 5 10 9 9 11 9 8 10 11 10 8 8 9 7 5 6 7 6 6 7 8 8 9 10 11 12 15 15 8 4 9 13 13 15 17 20 23 26 28 28 31 34 34 33 33 35 37 39 41 42 42 43 45 46 46 44 41 40 41 43 43 43 43 42 42 43 43 43 44 45 46 46 45 46 47 48 48 48 47 45 44 43 41 39 37 35 33 30
2 3 4 3 3 1 1 2 1 3 7 8 8 9 7 5 7 12 10 6 8 8 6 6 7 6 6 7 8 10 9 9 9 9 10 11 12 10 8 11 12 13 16 18 20 23 25 26 30 33 33 33 33 34 35 38 40 41 42 43 43 45 46 46 43 42 42 43 43 43 44 43 42 43 44 44 44 45 45 46 45 45 45 45 46 47 47 47 46 44 43 41 40 39 37 34 32
4 4 4 6 5 3 5 6 4 4 6 7 8 9 7 3 5 10 7 4 7 6 6 6 7 7 8 8 9 9 9 10 9 9 9 8 8 9 11 13 12 14 18 19 19 22 24 26 30 32 32 34 36 36 38 40 41 41 44 45 45 44 44 43 42 42 43 43 43 44 45 44 43 44 45 45 45 45 45 45 45 45 45 45 45 46 46 46 46 45 43 42 41 40 38 35 33
Wind_Direction
103 81 344 324 327 350 24 57 74 321 72 297 277 223 263 236 234 255 256 253 192 244 205 127 160 147 124 170 184 187 171 172 170 148 210 233 148 163 166 173 175 172 173 174 177 178 173 169 168 170 173 171 166 158 158 159 157 156 152 148 149 150 150 149 149 149 145 142 138 136 135 133 130 129 129 122 117 115 113 109 106 103 100 103 106 104 107 110 116 127 120 122 122 116 111 86 63
100 51 352 336 360 53 244 67 96 330 42 318 282 185 258 293 288 229 221 201 206 248 103 114 121 107 85 83 126 140 202 212 183 169 238 153 147 172 172 175 174 174 175 174 179 181 177 175 172 175 184 185 174 163 163 162 158 159 158 152 153 152 151 155 152 152 147 141 137 133 130 130 133 126 126 122 116 118 115 113 115 108 98 99 107 107 102 102 108 127 121 110 112 106 89 16 331
107 159 354 315 15 46 69 43 96 49 53 281 277 236 267 289 233 234 224 210 230 260 52 143 143 106 87 31 84 144 234 264 191 184 274 166 170 184 178 177 177 177 177 176 180 182 181 177 176 178 183 189 179 168 169 167 162 162 164 161 162 159 157 159 154 155 152 148 142 138 135 134 141 126 122 127 125 132 124 116 120 114 112 118 121 127 123 119 134 180 191 235 253 279 293 301 301
90 103 1 97 63 28 65 38 137 125 202 239 269 261 238 222 237 248 246 238 251 321 30 183 181 185 117 238 229 135 248 266 207 179 176 193 194 185 179 178 180 181 180 180 182 184 185 179 180 182 180 184 181 177 178 176 170 167 168 170 170 172 172 167 168 170 161 158 153 152 152 145 147 138 138 140 133 134 130 132 141 133 135 151 157 172 191 197 216 237 235 248 269 278 284 290 294
64 63 16 73 100 33 96 62 107 122 219 195 224 267 233 220 242 250 262 277 262 206 239 142 236 267 133 223 197 170 228 240 215 193 187 202 196 182 179 180 181 184 184 184 185 186 189 185 183 185 183 182 183 183 182 181 178 173 173 176 176 179 182 176 177 179 171 172 166 160 163 161 154 149 155 144 135 142 157 173 176 170 167 174 181 197 209 221 233 251 258 265 274 278 280 282 285
87 86 33 58 91 97 115 159 174 208 227 174 197 263 249 228 233 232 269 307 283 227 211 191 220 220 253 262 201 210 209 136 159 196 205 203 192 181 180 182 184 185 186 187 188 189 191 190 186 185 185 184 186 186 182 180 179 177 176 177 177 178 181 179 178 181 177 178 176 173 175 175 163 156 156 142 151 174 186 188 184 182 179 180 186 201 213 229 244 257 267 274 273 275 274 275 278
132 150 21 64 59 33 118 195 204 233 238 179 192 250 262 251 214 196 247 303 274 248 198 201 186 131 238 273 253 242 215 201 146 188 207 199 187 179 180 182 185 186 188 188 190 191 191 190 187 184 182 184 186 186 181 177 176 176 176 175 176 176 176 177 176 177 174 172 174 173 171 167 158 155 152 147 170 186 186 184 183 182 180 181 183 188 199 209 220 225 238 249 251 250 250 265 276
77 135 9 96 80 10 116 222 227 218 244 216 217 235 256 253 172 168 198 191 205 242 209 223 157 141 259 22 256 251 218 225 214 199 202 197 186 178 182 184 184 186 188 189 189 191 191 190 186 183 181 183 183 182 181 177 176 175 175 175 174 174 171 171 169 169 167 166 166 165 162 158 152 150 153 161 175 176 173 174 173 176 177 178 176 174 174 170 169 166 163 153 142 129 129 121 96
48 41 22 99 144 344 44 273 258 234 253 255 252 244 261 240 166 173 190 231 264 225 242 227 159 194 269 286 260 276 239 227 221 233 205 194 189 181 186 187 187 187 187 189 189 190 191 191 186 182 180 181 183 181 182 178 176 174 174 174 174 172 169 167 167 166 164 164 163 161 158 155 155 160 170 175 174 169 167 166 164 167 170 171 170 166 158 148 143 140 139 135 130 121 112 101 96
33 23 142 89 120 291 307 269 252 253 247 252 264 252 259 209 172 183 180 234 251 201 263 200 153 231 250 228 254 279 230 218 215 227 197 190 190 186 188 190 192 190 188 189 191 192 193 193 187 184 182 180 183 182 182 179 177 176 174 174 175 172 169 169 167 166 165 162 161 160 161 163 170 176 180 178 172 168 162 157 155 155 156 160 160 156 148 140 135 134 134 133 129 120 110 100 95
31 353 110 92 76 231 257 252 261 263 266 296 286 259 244 179 152 183 187 259 238 221 279 122 187 235 192 275 252 237 219 205 209 211 187 187 191 189 190 191 194 194 193 190 192 195 195 195 191 190 187 183 184 182 182 180 179 177 176 175 175 173 171 170 168 171 172 169 170 172 176 178 179 179 176 172 169 163 156 151 147 146 146 148 146 145 142 138 136 133 131 125 119 111 106 98 88
87 335 61 107 178 213 220 244 272 277 296 308 281 284 212 144 137 194 201 249 238 231 251 185 199 169 146 286 259 270 253 204 203 202 186 187 191 190 192 192 193 197 198 195 195 197 196 197 196 194 190 186 184 184 183 181 180 178 178 177 175 174 173 174 177 182 184 184 185 185 186 184 179 175 170 167 164 158 154 151 146 143 141 140 137 136 134 132 128 124 118 111 108 103 101 94 84
121 138 84 148 196 187 208 232 277 303 313 268 246 306 106 138 184 208 178 218 225 195 247 215 169 124 195 260 281 308 265 205 193 191 187 187 191 191 193 193 192 196 200 201 200 200 200 200 199 196 190 188 186 186 186 183 182 179 178 179 178 180 183 187 190 191 192 191 189 187 185 180 176 172 168 164 162 158 155 152 146 142 140 137 134 133 131 126 121 116 113 109 109 105 104 98 88
135 147 111 219 271 103 205 249 287 302 288 263 266 301 152 170 209 183 142 210 233 195 241 208 145 98 238 276 305 299 242 198 185 185 185 186 191 191 193 195 194 197 201 205 205 205 204 202 201 198 194 191 190 189 190 189 188 187 187 189 191 194 196 197 196 195 195 191 188 186 182 178 175 171 169 165 162 159 155 150 145 142 140 137 135 135 132 128 125 122 118 116 114 111 108 103 95
141 130 92 107 333 343 222 236 257 153 260 266 291 312 212 254 145 132 182 212 246 218 259 189 158 197 208 194 236 275 238 187 179 180 181 184 188 191 195 196 198 200 204 208 208 209 206 204 203 201 199 196 195 195 196 196 196 198 198 199 200 200 200 199 198 196 193 190 188 185 181 177 174 171 169 165 162 158 154 150 146 144 142 140 138 136 134 132 130 128 124 122 120 119 119 117 114
113 106 71 10 281 305 230 221 192 145 260 249 274 354 293 274 145 148 223 191 273 267 154 205 191 211 185 183 224 299 231 176 175 177 177 181 186 191 196 198 202 203 207 210 210 211 208 207 206 204 203 200 200 200 201 201 201 202 202 202 202 201 199 199 198 195 193 190 187 184 181 177 174 172 169 166 162 160 157 154 150 148 147 145 144 141 140 139 136 133 130 128 128 130 130 134 137
74 83 73 310 221 215 213 209 195 194 264 269 302 344 173 291 293 223 232 150 252 275 264 233 232 232 189 218 289 317 173 169 170 171 173 179 184 188 196 199 202 205 208 210 211 211 210 210 209 207 205 203 203 203 204 204 203 202 202 203 202 200 198 198 198 195 193 189 185 182 180 178 175 173 171 170 166 165 163 160 156 154 154 152 151 150 150 148 146 144 141 142 142 143 144 148 153
67 89 134 243 206 201 194 193 203 197 266 274 308 300 181 270 295 304 333 267 253 268 279 277 284 270 229 280 312 163 163 167 168 169 171 176 181 186 195 200 202 206 208 210 212 212 213 213 211 210 208 206 205 205 206 205 203 202 203 204 201 200 199 199 198 195 192 188 185 183 181 179 177 177 175 173 172 171 169 166 165 163 163 163 162 162 161 158 155 152 149 150 146 144 146 146 147
125 124 172 234 204 215 202 192 211 209 248 271 292 279 182 233 267 32 273 264 274 266 274 297 287 272 263 289 155 161 164 167 171 173 175 179 185 190 195 200 203 207 209 210 213 213 214 214 212 212 210 208 206 207 208 206 204 203 204 205 203 201 201 201 199 194 191 188 187 185 183 181 180 179 178 177 175 175 174 172 172 171 171 171 170 167 162 157 151 148 145 143 141 138 138 135 131
174 137 217 245 215 234 238 210 225 230 251 293 288 278 181 238 247 127 245 271 273 241 245 245 253 256 247 210 154 168 169 174 179 181 185 189 193 195 196 198 203 208 210 212 212 212 213 214 214 213 211 210 208 208 208 208 206 205 205 206 205 204 203 203 199 195 192 190 189 187 185 183 183 182 180 179 178 178 177 176 175 174 173 169 166 161 153 147 141 138 136 135 134 130 129 122 116
176 157 210 237 194 230 249 219 231 247 240 254 272 343 287 260 214 196 243 291 278 240 220 222 226 240 234 197 180 179 177 184 188 193 195 198 201 202 204 203 206 209 211 213 213 213 213 214 215 213 212 211 210 210 209 209 208 207 206 206 207 206 205 202 198 196 194 192 191 189 188 187 186 185 184 182 181 182 180 178 177 173 170 163 157 153 145 139 135 132 132 132 128 122 116 107 101
163 215 226 228 169 225 256 220 223 236 191 231 274 303 282 274 238 218 206 245 264 242 203 218 222 232 224 188 187 185 186 194 194 202 204 205 207 208 211 211 211 212 212 214 215 215 215 215 215 213 213 212 212 213 212 211 210 209 207 207 207 206 205 202 199 198 196 195 193 192 191 190 190 188 187 185 184 184 183 180 177 171 167 160 153 151 143 138 136 133 131 129 121 113 104 93 85
217 253 250 238 206 228 262 232 220 208 198 259 258 277 290 301 281 221 190 229 252 253 210 215 227 233 219 171 172 184 194 200 200 205 205 207 210 211 213 213 213 212 212 215 216 216 215 215 215 214 213 213 213 214 214 214 212 211 209 208 208 206 204 202 201 199 198 197 196 196 196 195 194 191 189 188 187 186 186 182 176 171 167 160 154 151 146 141 139 135 132 124 111 101 87 74 67
231 258 263 249 223 229 254 260 263 262 254 256 264 322 293 265 277 258 220 244 251 262 250 234 242 234 190 160 177 192 197 201 207 209 208 209 211 214 214 213 214 213 214 217 217 216 216 216 215 215 215 214 214 214 215 215 214 213 211 210 210 208 205 204 203 200 199 199 199 200 200 200 197 194 192 191 189 187 186 183 177 173 168 164 158 155 153 148 143 138 130 118 107 94 73 61 53
224 236 249 256 239 240 257 268 271 267 256 255 291 292 264 245 269 304 266 263 263 261 255 249 247 213 178 190 195 199 203 208 214 215 215 217 218 219 219 217 216 216 218 219 217 217 218 217 216 216 215 215 215 215 216 216 215 213 212 211 210 210 208 207 206 203 202 201 202 203 203 204 201 197 194 192 190 187 185 183 179 175 172 170 164 161 160 154 149 141 133 120 105 88 65 50 40
219 224 251 261 268 267 269 267 247 244 246 204 233 271 267 256 268 275 262 263 275 265 251 254 237 216 208 210 205 202 209 212 217 218 219 222 223 225 225 220 218 219 221 220 218 219 218 216 216 216 216 216 215 215 216 216 215 214 212 211 211 211 210 209 208 206 205 205 205 206 206 206 204 201 197 195 192 188 185 184 182 178 177 175 170 167 163 161 158 151 144 127 96 75 52 37 30
199 219 267 257 272 283 250 247 240 222 244 196 204 260 270 282 131 265 263 249 286 304 272 265 222 230 226 218 216 208 214 219 218 217 219 224 223 226 226 220 220 222 222 221 221 221 218 217 217 216 216 215 215 215 216 217 216 215 213 212 212 211 210 210 209 209 208 208 209 209 209 208 207 204 200 199 194 191 188 186 184 182 181 178 174 174 171 170 170 167 159 131 83 56 43 35 19
208 261 299 281 296 300 258 252 250 199 249 205 190 253 278 314 175 250 261 247 26 315 288 274 227 241 238 223 227 214 221 228 221 214 217 220 220 223 222 220 222 222 221 223 223 220 218 218 218 216 215 214 215 215 216 217 216 215 214 212 213 212 211 210 210 211 211 211 211 211 212 210 208 206 204 202 198 194 191 189 187 185 185 183 179 180 180 178 176 175 166 146 105 79 58 48 24
311 30 324 296 332 311 276 272 247 182 222 188 157 265 285 255 227 240 256 260 320 290 278 272 244 244 245 232 231 224 229 231 219 216 223 224 223 222 222 224 222 220 223 225 222 220 221 219 218 216 214 214 214 216 216 216 216 215 214 213 213 212 212 212 212 212 213 213 212 213 214 211 208 207 206 204 201 198 195 193 190 188 188 187 185 185 185 183 178 175 168 162 146 120 93 75 45
301 21 349 298 339 308 279 355 54 172 195 166 142 272 269 254 253 248 256 261 251 265 267 267 258 251 249 237 231 236 235 228 219 223 228 229 229 225 226 229 224 223 225 223 221 223 223 219 217 215 213 214 214 215 215 215 216 215 215 214 213 213 212 213 213 214 214 214 214 214 214 213 210 209 208 207 204 201 198 196 194 192 191 191 191 189 188 185 179 179 173 166 162 154 147 94 30
303 312 291 304 315 283 291 59 81 249 219 158 154 252 256 265 270 259 248 236 213 241 259 262 264 261 257 244 232 241 239 227 227 231 232 233 234 230 230 231 226 225 223 221 223 225 222 218 216 214 213 214 214 214 214 215 216 215 215 214 213 213 213 214 214 215 215 214 215 215 214 214 212 210 210 209 206 204 201 199 197 195 194 193 192 189 188 185 181 179 174 172 174 176 185 42 11
2 275 281 307 212 270 301 300 202 230 265 131 158 239 255 260 272 271 253 202 195 228 256 262 264 262 263 261 242 243 247 236 235 238 238 237 237 233 232 231 227 224 223 223 225 222 220 219 216 214 213 213 213 213 214 214 215 215 215 215 214 214 214 214 215 215 216 215 215 215 215 214 214 212 211 211 209 206 204 202 199 196 195 193 192 190 187 186 184 179 175 177 179 180 190 58 7
334 221 251 270 251 272 309 299 230 213 234 173 199 233 262 256 268 277 268 196 205 231 258 261 262 262 260 266 261 253 257 252 244 243 241 238 237 235 233 231 228 226 225 224 222 219 218 218 215 214 214 213 213 212 212 213 213 214 215 215 214 214 215 215 215 215 216 215 215 215 215 215 215 214 212 212 211 209 207 204 200 197 196 194 192 190 186 185 184 182 178 175 178 179 178 185 345
293 324 232 247 252 256 290 298 286 201 179 215 233 238 253 257 269 283 283 245 221 234 255 258 259 263 257 260 265 263 263 260 252 244 241 239 237 236 234 232 230 227 226 224 222 221 219 217 215 215 214 213 211 210 209 210 211 213 214 215 215 214 215 216 216 216 216 216 216 216 216 216 216 215 214 212 211 211 209 205 201 198 197 195 193 191 187 185 183 183 181 176 177 181 182 198 306
234 220 236 248 248 246 258 272 281 273 216 213 242 250 253 263 271 280 280 271 257 249 254 258 259 263 261 259 259 259 263 263 259 251 246 244 240 237 234 231 229 226 225 224 222 221 219 217 215 214 212 210 209 208 207 207 208 210 212 213 214 215 215 216 217 217 217 217 217 216 216 216 217 216 215 213 211 212 209 205 203 200 198 196 194 192 189 188 186 183 183 180 180 184 197 224 311
223 218 235 253 257 250 244 253 255 267 281 254 247 257 258 265 266 268 273 274 271 264 262 261 258 260 261 259 257 254 257 259 261 261 255 247 243 238 234 230 227 226 224 222 220 218 217 215 213 212 210 208 205 203 202 202 204 206 208 209 211 213 215 216 218 218 218 218 218 217 216 216 217 216 215 214 212 212 209 206 204 201 200 198 197 196 194 194 190 186 183 184 185 184 187 214 328
237 226 245 249 256 265 253 259 263 231 280 260 243 261 265 262 263 262 267 273 275 272 270 266 259 257 257 256 257 254 251 254 263 269 264 250 244 237 232 228 222 221 221 219 217 215 215 214 211 210 208 205 202 200 199 199 199 200 202 205 209 211 213 214 217 218 219 219 219 218 218 217 217 216 215 214 213 213 210 207 204 202 201 200 201 200 198 194 190 189 185 182 186 187 180 184 341
252 237 259 259 244 261 258 262 273 244 200 259 245 263 268 263 263 261 262 264 264 266 268 268 265 259 257 257 258 256 254 259 266 270 265 250 241 232 225 221 215 214 215 215 215 215 214 212 210 209 205 202 202 201 199 199 201 201 202 206 209 209 210 212 214 216 217 218 218 218 218 218 217 216 215 214 214 213 210 208 206 204 203 202 200 199 198 194 191 191 190 185 183 184 183 168 55
240 239 260 265 247 268 268 257 272 270 173 269 265 264 268 265 263 257 254 252 249 257 262 263 266 263 260 257 258 260 259 262 263 265 265 245 229 225 218 215 213 214 215 214 215 215 211 209 209 207 203 201 202 201 201 202 203 204 205 207 207 207 210 212 214 215 215 216 217 218 219 218 217 217 216 215 215 214 212 210 208 206 205 203 199 197 197 196 195 194 194 194 188 179 176 167 120
218 225 242 260 252 261 266 252 285 304 219 269 285 277 270 261 263 255 246 249 248 257 261 261 261 259 259 257 259 264 262 263 261 263 270 246 213 218 213 213 214 213 213 213 212 210 208 208 207 205 203 202 201 201 203 203 202 202 204 207 207 206 210 212 213 216 215 215 216 217 218 218 217 217 216 216 216 215 214 213 211 209 207 205 202 200 200 199 199 197 195 198 196 184 173 173 166
220 213 217 247 248 242 250 272 334 328 274 287 306 293 277 226 240 252 245 247 248 252 259 262 260 255 257 260 259 260 260 261 262 265 271 253 209 216 214 214 214 210 212 213 211 209 208 208 207 204 204 202 201 201 201 200 198 197 198 201 202 203 207 208 209 214 214 214 215 215 216 216 217 218 217 217 217 216 216 214 213 212 209 207 204 205 206 204 203 201 200 201 201 194 183 178 175
249 214 213 235 247 250 259 285 345 344 299 327 1 310 293 199 205 243 254 246 242 242 249 254 258 258 258 261 259 256 256 260 260 262 269 263 231 219 218 216 212 212 216 216 213 211 209 208 205 203 202 201 201 200 198 197 195 194 193 191 191 194 199 204 208 211 210 211 213 213 214 215 216 217 217 217 218 217 217 216 215 214 212 208 207 208 208 207 205 203 203 203 201 198 191 182 175
271 227 211 230 245 255 259 270 315 282 258 305 52 337 292 278 198 219 234 229 240 244 245 251 257 260 258 259 264 262 257 260 263 262 265 262 244 219 216 215 212 217 220 217 213 211 209 207 203 201 201 200 200 198 196 196 195 194 195 195 195 196 200 207 211 212 211 210 211 213 214 214 215 217 218 218 217 218 218 218 216 215 214 212 209 209 208 208 208 205 203 201 199 198 194 187 179
267 235 194 207 225 238 239 232 223 234 274 305 115 131 276 287 246 193 208 211 237 252 251 255 257 259 261 260 265 266 261 258 262 265 262 260 251 233 225 219 217 222 221 214 211 209 208 206 203 201 200 199 199 197 196 196 196 196 197 199 201 204 207 211 211 210 212 212 211 212 213 214 215 216 218 218 217 218 218 218 217 216 215 214 212 211 209 208 207 205 201 198 197 199 197 194 187
256 178 149 170 193 210 174 169 200 253 345 291 207 136 245 279 269 137 196 206 235 252 248 251 253 260 269 262 259 265 269 264 251 253 263 270 269 248 239 232 227 224 218 212 210 208 206 204 201 199 199 199 198 197 197 198 199 199 199 201 204 208 211 212 211 209 211 211 210 211 212 213 214 215 217 218 218 218 218 218 217 216 215 214 214 212 210 208 207 206 203 200 198 196 196 198 197
224 106 92 73 74 75 99 138 151 72 311 251 194 162 217 278 275 89 70 195 229 244 243 252 258 262 269 263 263 265 269 271 262 256 266 275 275 258 245 238 232 224 216 213 209 205 202 199 197 196 197 198 197 198 199 199 201 201 202 203 205 208 208 209 209 207 208 209 208 209 210 212 213 213 214 216 217 218 218 218 217 217 217 215 214 212 210 208 208 208 206 205 202 198 196 196 198
152 103 58 35 31 30 55 53 84 59 280 239 184 181 189 275 281 131 169 207 222 237 244 265 269 265 265 263 267 272 271 277 289 294 289 291 295 281 254 238 232 221 212 208 203 200 198 196 195 195 197 198 198 199 200 201 202 203 205 206 207 208 205 204 204 203 205 205 206 207 208 210 211 212 213 214 215 217 217 218 218 217 217 216 214 213 211 209 207 208 208 207 205 203 202 196 195
127 100 69 25 335 9 26 348 52 171 265 236 182 181 182 235 258 187 242 256 240 229 227 245 257 262 269 269 269 277 280 281 305 317 316 327 325 302 245 230 224 214 206 201 198 196 194 194 193 194 196 198 199 199 201 202 203 205 208 209 210 209 206 205 205 204 204 204 206 206 206 208 209 210 211 211 213 214 215 216 216 216 216 216 214 213 212 210 208 208 207 207 205 203 203 201 199
118 114 127 135 305 342 346 309 80 213 257 247 171 169 202 244 255 255 266 272 249 225 219 229 240 255 269 276 280 289 288 285 313 323 312 315 306 289 251 224 212 208 207 201 196 193 193 194 193 194 197 198 199 200 202 203 205 207 209 210 211 210 209 209 209 208 208 207 207 206 206 207 207 208 209 210 212 212 213 214 214 214 215 215 214 213 212 210 209 208 207 206 206 205 205 206 207
156 153 158 170 212 244 257 258 261 254 264 283 162 161 247 275 270 234 239 251 247 226 221 230 237 255 269 277 285 291 288 297 348 339 306 301 293 288 266 235 217 213 212 206 199 196 194 194 195 197 198 198 199 202 203 204 208 210 210 211 211 210 211 212 213 212 211 210 209 208 209 208 208 210 211 212 212 211 211 213 214 214 215 215 214 212 211 211 210 209 208 208 208 207 208 209 211
182 159 144 185 196 193 221 227 249 265 275 301 215 178 226 265 280 233 233 258 278 246 234 246 258 262 269 282 288 293 294 309 340 325 293 283 274 266 252 241 231 222 215 210 206 200 197 197 199 199 199 199 200 202 204 206 210 212 212 212 212 212 213 214 215 215 214 213 212 211 212 212 212 214 214 214 213 211 211 213 213 214 214 214 213 212 211 210 210 209 210 210 209 208 208 209 209
218 123 109 235 209 165 225 244 239 266 305 282 232 220 233 247 279 266 254 270 280 266 262 281 287 278 299 306 291 297 300 302 311 307 293 279 268 253 241 238 235 229 220 215 212 206 203 201 202 202 202 201 201 203 206 209 211 212 212 214 214 214 214 215 216 217 217 216 215 214 215 215 215 216 216 216 214 213 213 212 212 213 214 213 213 211 210 210 209 209 209 209 209 207 208 209 209
182 130 185 227 161 143 223 261 261 42 267 257 244 258 272 295 287 279 268 268 265 274 281 274 272 283 318 303 280 285 290 291 300 304 302 291 281 271 258 246 237 230 224 221 220 216 210 205 204 206 206 204 205 207 210 211 211 211 213 215 215 215 216 217 218 218 217 217 217 217 217 217 217 217 217 216 215 215 214 213 212 212 212 212 212 211 211 210 209 209 209 209 208 207 208 209 210
138 176 213 186 91 129 183 251 311 241 247 249 246 258 269 279 274 298 33 329 289 283 291 296 288 279 266 272 275 276 277 284 296 298 297 288 277 267 267 265 250 237 232 230 229 228 225 217 209 208 208 209 210 211 212 211 211 212 214 215 216 217 218 219 220 220 218 216 217 218 218 218 218 218 217 216 216 215 214 213 212 211 211 211 211 211 210 210 209 209 210 210 209 208 208 208 210
142 204 233 115 180 239 168 186 228 235 245 247 232 249 260 250 253 272 293 287 284 274 282 314 295 272 261 275 283 285 288 306 320 321 321 312 306 294 271 281 278 258 245 240 236 234 235 232 222 214 214 216 216 215 214 215 214 215 216 217 217 218 219 220 221 221 219 217 218 218 218 219 219 218 217 216 216 215 214 213 212 212 210 209 210 210 210 209 209 208 209 209 209 208 208 208 208
77 277 304 104 182 199 180 191 197 227 247 253 237 237 245 244 258 271 261 244 248 253 252 253 253 254 264 272 284 302 317 326 326 323 318 313 317 334 317 285 284 278 265 250 241 236 233 235 233 225 222 222 222 220 218 218 219 219 219 219 219 219 220 221 221 220 219 219 220 219 219 219 218 217 217 216 216 215 213 213 212 211 210 209 208 208 208 208 207 208 208 208 208 207 207 208 207
161 222 241 227 212 211 259 236 175 233 255 261 255 246 242 249 270 275 265 219 220 229 212 226 249 258 271 287 308 317 318 315 307 301 301 304 312 330 332 306 296 294 282 259 243 239 234 234 236 233 228 225 225 224 221 222 222 222 222 221 220 220 220 220 220 219 219 221 221 220 220 220 218 218 217 216 215 215 213 212 212 211 210 209 208 207 207 206 205 206 207 208 207 206 206 206 205
170 203 229 233 233 247 269 255 219 223 250 253 259 260 253 255 289 293 285 206 206 218 208 241 273 285 291 300 305 304 302 300 294 291 299 308 307 311 320 318 309 293 279 262 245 241 237 234 236 237 234 229 228 226 225 225 225 224 225 224 222 221 220 220 219 219 220 220 221 221 221 218 217 217 216 215 215 214 213 212 211 211 211 210 209 207 206 205 204 205 205 206 206 205 205 204 203